| time (UTC) | temp F | wind direction | speed MPH | gust MPH | rain 1hr in | rain 24hr in | rain mn in | humidity % | barometer mb |
| 20260901151518 | 83 | 207 | 0.0 | 3.0 | 0.00 | 0.10 | 0.10 | 79 | 1013.1 |
| 20260901150006 | 83 | 303 | 0.0 | 2.0 | 0.00 | 0.10 | 0.10 | 78 | 1013.0 |
| 20260901144503 | 82 | 274 | 0.0 | 3.0 | 0.01 | 0.11 | 0.10 | 80 | 1013.0 |
| 20260901143003 | 81 | 268 | 1.0 | 2.0 | 0.01 | 0.11 | 0.10 | 81 | 1012.9 |
| 20260901141504 | 79 | 243 | 0.0 | 3.0 | 0.01 | 0.11 | 0.10 | 85 | 1013.0 |
| 20260901140003 | 78 | 214 | 0.0 | 3.0 | 0.01 | 0.11 | 0.10 | 86 | 1013.1 |
| 20260901134559 | 76 | 251 | 0.0 | 2.0 | 0.00 | 0.10 | 0.09 | 88 | 1013.1 |
| 20260901133057 | 75 | 258 | 0.0 | 2.0 | 0.00 | 0.10 | 0.09 | 89 | 1013.2 |
| 20260901131558 | 75 | 264 | 0.0 | 1.0 | 0.00 | 0.10 | 0.09 | 90 | 1013.4 |
| 20260901130057 | 74 | 251 | 0.0 | 1.0 | 0.00 | 0.10 | 0.09 | 91 | 1013.5 |
| 20260901124556 | 73 | 184 | 0.0 | 1.0 | 0.00 | 0.10 | 0.09 | 91 | 1013.4 |
| 20260901123052 | 0 | 0.0 | 0.0 | 0.00 | 0.10 | 0.09 | 1013.1 | ||
| 20260901121545 | 0 | 0.0 | 0.0 | 0.00 | 0.10 | 0.09 | 1013.2 | ||
| 20260901120041 | 0 | 0.0 | 0.0 | 0.00 | 0.10 | 0.09 | 1012.9 | ||
| 20260901114535 | 0 | 0.0 | 0.0 | 0.00 | 0.10 | 0.09 | 1012.8 | ||
| 20260901113035 | 0 | 0.0 | 0.0 | 0.00 | 0.10 | 0.09 | 1012.5 | ||
| 20260901111526 | 0 | 0.0 | 0.0 | 0.01 | 0.10 | 0.09 | 1012.4 | ||
| 20260901110024 | 0 | 0.0 | 0.0 | 0.01 | 0.10 | 0.09 | 1012.4 | ||
| 20260901104521 | 0 | 0.0 | 0.0 | 0.02 | 0.10 | 0.09 | 1012.0 | ||
| 20260901103011 | 0 | 286 | 0.0 | 2.0 | 0.02 | 0.10 | 0.09 | 1012.4 | |
| 20260901101516 | 74 | 162 | 0.0 | 1.0 | 0.01 | 0.09 | 0.08 | 89 | 1012.2 |
| 20260901100007 | 75 | 266 | 0.0 | 1.0 | 0.02 | 0.09 | 0.08 | 88 | 1012.2 |
| 20260901094505 | 75 | 247 | 0.0 | 3.0 | 0.05 | 0.08 | 0.07 | 88 | 1012.0 |
| 20260901093001 | 75 | 272 | 0.0 | 2.0 | 0.05 | 0.08 | 0.07 | 87 | 1011.8 |
| 20260901091600 | 76 | 265 | 1.0 | 3.0 | 0.05 | 0.08 | 0.07 | 86 | 1011.9 |
| 20260901090059 | 77 | 247 | 0.0 | 3.0 | 0.05 | 0.08 | 0.07 | 83 | 1012.2 |
| 20260901084558 | 78 | 283 | 1.0 | 4.0 | 0.00 | 0.03 | 0.02 | 81 | 1011.9 |
| 20260901083055 | 78 | 248 | 0.0 | 5.0 | 0.00 | 0.03 | 0.02 | 80 | 1011.9 |
| 20260901081601 | 78 | 277 | 1.0 | 5.0 | 0.00 | 0.03 | 0.02 | 79 | 1011.7 |
| 20260901080145 | 79 | 277 | 1.0 | 8.0 | 0.00 | 0.03 | 0.02 | 78 | 1011.5 |
| 20260901074553 | 79 | 261 | 2.0 | 8.0 | 0.00 | 0.03 | 0.02 | 78 | 1011.4 |
| 20260901073023 | 79 | 191 | 2.0 | 6.0 | 0.00 | 0.03 | 0.02 | 78 | 1011.6 |
| 20260901071522 | 79 | 262 | 1.0 | 6.0 | 0.00 | 0.03 | 0.02 | 78 | 1011.5 |
| 20260901070027 | 78 | 252 | 2.0 | 8.0 | 0.00 | 0.03 | 0.02 | 80 | 1011.4 |
| 20260901064517 | 76 | 243 | 0.0 | 0.0 | 0.00 | 0.03 | 0.02 | 84 | 1011.3 |
| 20260901063018 | 76 | 176 | 0.0 | 0.0 | 0.00 | 0.03 | 0.02 | 84 | 1011.4 |
| 20260901061517 | 76 | 122 | 0.0 | 4.0 | 0.00 | 0.03 | 0.02 | 84 | 1011.5 |
| 20260901060012 | 76 | 181 | 0.0 | 2.0 | 0.00 | 0.03 | 0.02 | 85 | 1011.5 |
| 20260901054512 | 76 | 161 | 0.0 | 2.0 | 0.00 | 0.03 | 0.02 | 85 | 1011.6 |
| 20260901053011 | 76 | 222 | 0.0 | 2.0 | 0.00 | 0.03 | 0.02 | 85 | 1011.6 |
| 20260901051509 | 77 | 142 | 0.0 | 2.0 | 0.00 | 0.03 | 0.02 | 84 | 1011.7 |
| 20260901050007 | 77 | 167 | 0.0 | 2.0 | 0.00 | 0.03 | 0.02 | 84 | 1011.6 |
| 20260901044506 | 77 | 248 | 0.0 | 2.0 | 0.00 | 0.04 | 0.02 | 83 | 1011.6 |
| 20260901043003 | 78 | 187 | 1.0 | 3.0 | 0.00 | 0.04 | 0.02 | 83 | 1011.7 |
| 20260901041502 | 78 | 224 | 0.0 | 2.0 | 0.00 | 0.04 | 0.02 | 82 | 1011.6 |
| 20260901040103 | 79 | 218 | 0.0 | 3.0 | 0.00 | 0.04 | 0.02 | 82 | 1011.6 |
| 20260901034555 | 79 | 296 | 0.0 | 3.0 | 0.00 | 0.04 | 0.02 | 81 | 1011.5 |
| 20260901033054 | 79 | 224 | 0.0 | 4.0 | 0.00 | 0.04 | 0.02 | 81 | 1011.5 |
| 20260901031557 | 79 | 255 | 0.0 | 2.0 | 0.00 | 0.04 | 0.02 | 81 | 1011.7 |
| 20260901030053 | 79 | 166 | 0.0 | 2.0 | 0.00 | 0.04 | 0.02 | 81 | 1011.8 |
| 20260901024600 | 79 | 153 | 0.0 | 3.0 | 0.00 | 0.04 | 0.02 | 81 | 1011.7 |
| 20260901023052 | 79 | 169 | 0.0 | 1.0 | 0.00 | 0.04 | 0.02 | 82 | 1011.7 |
| 20260901021606 | 79 | 156 | 0.0 | 3.0 | 0.00 | 0.04 | 0.02 | 83 | 1011.8 |
| 20260901020020 | 79 | 174 | 0.0 | 0.0 | 0.00 | 0.04 | 0.02 | 83 | 1011.9 |
| 20260901014520 | 79 | 238 | 0.0 | 1.0 | 0.00 | 0.04 | 0.02 | 83 | 1011.7 |
| 20260901013018 | 80 | 238 | 0.0 | 1.0 | 0.00 | 0.04 | 0.02 | 83 | 1011.7 |
| 20260901011525 | 80 | 337 | 0.0 | 1.0 | 0.02 | 0.04 | 0.02 | 83 | 1011.5 |
| 20260901010017 | 80 | 155 | 0.0 | 5.0 | 0.02 | 0.04 | 0.02 | 82 | 1011.2 |
| 20260901004516 | 80 | 266 | 1.0 | 5.0 | 0.02 | 0.04 | 0.02 | 83 | 1010.7 |
| 20260901003013 | 82 | 46 | 1.0 | 6.0 | 0.02 | 0.04 | 0.02 | 81 | 1010.2 |
| 20260901001510 | 84 | 136 | 0.0 | 3.0 | 0.00 | 0.02 | 0.00 | 75 | 1012.0 |
| 20260901000015 | 85 | 165 | 1.0 | 3.0 | 0.00 | 0.02 | 0.00 | 73 | 1012.1 |
| 20260831234509 | 86 | 241 | 0.0 | 4.0 | 0.00 | 0.02 | 0.00 | 71 | 1011.5 |
| 20260831233006 | 87 | 104 | 0.0 | 2.0 | 0.00 | 0.02 | 0.00 | 70 | 1011.8 |
| 20260831231516 | 87 | 118 | 0.0 | 2.0 | 0.00 | 0.02 | 0.00 | 70 | 1011.8 |
| 20260831230004 | 88 | 157 | 0.0 | 2.0 | 0.00 | 0.02 | 0.00 | 68 | 1012.0 |
| 20260831224502 | 89 | 126 | 0.0 | 4.0 | 0.00 | 0.02 | 0.00 | 66 | 1011.4 |
| 20260831223058 | 91 | 294 | 0.0 | 5.0 | 0.00 | 0.02 | 0.00 | 64 | 1011.1 |
| 20260831221610 | 91 | 179 | 1.0 | 6.0 | 0.00 | 0.02 | 0.00 | 63 | 1011.1 |
| 20260831220057 | 93 | 156 | 1.0 | 5.0 | 0.00 | 0.02 | 0.00 | 61 | 1010.9 |
| 20260831214558 | 92 | 173 | 0.0 | 4.0 | 0.00 | 0.02 | 0.00 | 61 | 1011.0 |
| 20260831213025 | 91 | 243 | 0.0 | 3.0 | 0.00 | 0.02 | 0.00 | 64 | 1011.3 |
| 20260831211525 | 91 | 250 | 3.0 | 8.0 | 0.00 | 0.02 | 0.00 | 61 | 1011.3 |
| 20260831210022 | 92 | 151 | 2.0 | 8.0 | 0.00 | 0.02 | 0.00 | 59 | 1011.2 |
| 20260831204522 | 93 | 174 | 2.0 | 9.0 | 0.00 | 0.03 | 0.00 | 58 | 1011.0 |
| 20260831203032 | 92 | 248 | 3.0 | 9.0 | 0.00 | 0.03 | 0.00 | 58 | 1010.6 |
| 20260831201518 | 92 | 73 | 2.0 | 6.0 | 0.00 | 0.03 | 0.00 | 58 | 1010.7 |
| 20260831200014 | 92 | 280 | 2.0 | 6.0 | 0.00 | 0.03 | 0.00 | 58 | 1010.8 |
| 20260831194553 | 91 | 285 | 3.0 | 8.0 | 0.00 | 0.03 | 0.00 | 58 | 1011.2 |
| 20260831193048 | 91 | 323 | 3.0 | 7.0 | 0.00 | 0.03 | 0.00 | 58 | 1011.2 |
| 20260831191545 | 90 | 145 | 2.0 | 5.0 | 0.00 | 0.03 | 0.00 | 61 | 1011.3 |
| 20260831190032 | 90 | 279 | 3.0 | 8.0 | 0.00 | 0.03 | 0.00 | 59 | 1011.6 |
| 20260831184528 | 90 | 103 | 1.0 | 6.0 | 0.00 | 0.03 | 0.00 | 62 | 1011.7 |
| 20260831183029 | 89 | 305 | 1.0 | 6.0 | 0.00 | 0.03 | 0.00 | 63 | 1011.8 |
| 20260831181520 | 88 | 272 | 2.0 | 11.0 | 0.00 | 0.03 | 0.00 | 61 | 1012.0 |
| 20260831180016 | 88 | 218 | 2.0 | 7.0 | 0.00 | 0.03 | 0.00 | 63 | 1012.3 |
| 20260831174513 | 87 | 270 | 1.0 | 5.0 | 0.00 | 0.03 | 0.00 | 66 | 1012.5 |
| 20260831173008 | 85 | 101 | 0.0 | 5.0 | 0.00 | 0.03 | 0.00 | 70 | 1012.8 |
| 20260831171534 | 82 | 195 | 0.0 | 4.0 | 0.00 | 0.03 | 0.00 | 73 | 1013.3 |
| 20260831170030 | 79 | 211 | 0.0 | 3.0 | 0.00 | 0.03 | 0.00 | 78 | 1013.5 |
| 20260831164602 | 77 | 269 | 0.0 | 4.0 | 0.00 | 0.03 | 0.03 | 80 | 1013.8 |
| 20260831163058 | 78 | 215 | 1.0 | 3.0 | 0.00 | 0.03 | 0.03 | 77 | 1014.0 |
| 20260831161531 | 78 | 44 | 0.0 | 5.0 | 0.00 | 0.03 | 0.03 | 76 | 1014.1 |
| 20260831160030 | 77 | 163 | 0.0 | 1.0 | 0.00 | 0.03 | 0.03 | 78 | 1014.2 |
| 20260831154547 | 76 | 272 | 1.0 | 4.0 | 0.00 | 0.03 | 0.03 | 81 | 1014.3 |
| 20260831153027 | 74 | 146 | 0.0 | 2.0 | 0.00 | 0.03 | 0.03 | 84 | 1014.3 |